TimeAKST,TemperatureF,Dew PointF,Humidity,Sea Level PressureIn,VisibilityMPH,Wind Direction,Wind SpeedMPH,Gust SpeedMPH,PrecipitationIn,Events,Conditions,WindDirDegrees,DateUTC
12:53 AM,36.0,36.0,100,29.81,7.0,SSE,13.8,-,0.04,Rain,Light Rain,150,2013-02-18 09:53:00
1:53 AM,36.0,36.0,100,29.79,10.0,SSE,12.7,-,0.05,Rain,Light Rain,150,2013-02-18 10:53:00
3:53 AM,36.0,36.0,100,29.76,10.0,SSE,11.5,-,0.05,Rain,Light Rain,150,2013-02-18 12:53:00
4:53 AM,36.0,36.0,100,29.75,10.0,South,8.1,-,0.03,Rain,Light Rain,170,2013-02-18 13:53:00
5:53 AM,36.0,36.0,100,29.74,10.0,South,6.9,-,0.01,Rain,Light Rain,170,2013-02-18 14:53:00
5:58 AM,35.6,35.6,100,29.74,10.0,South,6.9,-,0.00,Rain,Light Rain,180,2013-02-18 14:58:00
6:53 AM,35.1,35.1,100,29.74,10.0,South,6.9,-,0.01,Rain,Light Rain,180,2013-02-18 15:53:00
7:53 AM,36.0,36.0,100,29.73,10.0,SE,9.2,-,0.00,Rain,Light Rain,140,2013-02-18 16:53:00
8:53 AM,36.0,36.0,100,29.73,10.0,Variable,3.5,-,0.00,Rain,Light Rain,0,2013-02-18 17:53:00
9:53 AM,37.0,36.0,96,29.73,10.0,Calm,Calm,-,0.02,Rain,Light Rain,0,2013-02-18 18:53:00
10:53 AM,37.0,37.0,100,29.73,10.0,ENE,3.5,-,0.01,Rain,Light Rain,70,2013-02-18 19:53:00
11:53 AM,37.9,37.9,100,29.74,10.0,Calm,Calm,-,0.00,Rain,Light Rain,0,2013-02-18 20:53:00
12:53 PM,39.9,39.0,97,29.74,10.0,Calm,Calm,-,0.01,,Overcast,0,2013-02-18 21:53:00
1:53 PM,39.9,37.9,93,29.75,10.0,Calm,Calm,-,0.00,,Overcast,0,2013-02-18 22:53:00
2:53 PM,39.9,39.0,97,29.75,10.0,Calm,Calm,-,0.01,Rain,Light Rain,0,2013-02-18 23:53:00
3:53 PM,39.9,37.9,93,29.76,10.0,Calm,Calm,-,0.00,,Overcast,0,2013-02-19 00:53:00
4:05 PM,39.2,37.4,93,29.76,10.0,Calm,Calm,-,0.00,Rain,Light Rain,0,2013-02-19 01:05:00
4:53 PM,39.0,37.9,96,29.77,10.0,Calm,Calm,-,0.00,Rain,Light Rain,0,2013-02-19 01:53:00
5:53 PM,37.9,37.9,100,29.78,10.0,Calm,Calm,-,N/A,,Overcast,0,2013-02-19 02:53:00
6:53 PM,36.0,36.0,100,29.80,10.0,Calm,Calm,-,N/A,,Overcast,0,2013-02-19 03:53:00
7:53 PM,36.0,36.0,100,29.81,10.0,Calm,Calm,-,N/A,,Overcast,0,2013-02-19 04:53:00
8:53 PM,35.1,35.1,100,29.82,10.0,Calm,Calm,-,N/A,,Overcast,0,2013-02-19 05:53:00
9:42 PM,33.8,33.8,100,29.83,10.0,Calm,Calm,-,N/A,,Mostly Cloudy,0,2013-02-19 06:42:00
9:53 PM,33.1,33.1,100,29.84,6.0,Calm,Calm,-,N/A,,Overcast,0,2013-02-19 06:53:00
10:00 PM,33.8,33.8,100,29.84,1.5,WSW,3.5,-,N/A,,Overcast,240,2013-02-19 07:00:00
10:10 PM,33.8,33.8,100,29.84,0.5,SW,3.5,-,N/A,Fog,Fog,220,2013-02-19 07:10:00
10:18 PM,33.8,33.8,100,29.85,2.0,Calm,Calm,-,N/A,,Overcast,0,2013-02-19 07:18:00
10:25 PM,33.8,33.8,100,29.85,8.0,Calm,Calm,-,N/A,,Overcast,0,2013-02-19 07:25:00
10:53 PM,33.1,33.1,100,29.86,10.0,SW,3.5,-,N/A,,Overcast,220,2013-02-19 07:53:00
11:53 PM,34.0,34.0,100,29.87,10.0,Calm,Calm,-,N/A,,Mostly Cloudy,0,2013-02-19 08:53:00